SCP
0 0 0 0 0 0 0 0 0 0 0 0 0 0 0 0 0 0 0 0 0 0 0 0 0 0 0 0 0 0 0 0 0 0 0 0 0 0 0 0 0 0 0 0
0 0 0 0 0 0 0 0 0 0 0 0 0 0 0 0 0 0 0 0 0 0 0 0 0 0 0 0 0 0 0 0 0 0 0 0 0 0 0 0 0 0 0 0
0 0 0 0 0 0 0 0 0 0 0 0 0 0 0 0 0 0 0 0 0 0 0 0 0 0 0 0 0 0 0 0 0 0 0 0 0 0 0 0 0 0 0 0
0 0 0 0 0 0 0 0 0 0 0 0 0 0 0 0 0 0 0 0 0 0 0 0 0 0 0 0 0 0 0 0 0 0 0 0 0 0 0 0 0 0 0 0
0 0 0 0 0 0 0 0 0 0 0 0 0 0 0 0 0 0 0 0 0 0 0 0 0 0 0 0 0 0 0 0 0 0 0 0 0 0 0 0 0 0 0 0
0 0 0 0 0 0 0 0 0 0 0 0 0 0 0 0 0 0 0 0 0 0 0 0 0 0 0 0 0 0 0 0 0 0 0 0 0 0 0 0 0 0 0 0
0 0 0 0 0 0 0 0 0 0 0 0 0 0 0 0 0 0 0 0 0 0 0 0 0 0 0 0 0 0 0 0 0 0 0 0 0 0 0 0 0 0 0 0
0 0 0 0 0 0 0 0 0 0 0 0 0 0 0 0 0 0 0 0 0 0 0 0 0 0 0 0 0 0 0 0 0 0 0 0 0 0 0 0 0 0 0 0
0 0 0 0 0 0 0 0 0 0 0 0 0 0 0 0 0 0 0 0 0 0 0 0 0 0 0 0 0 0 0 0 0 0 0 0 0 0 0 0 0 0 0 0
0 0 0 0 0 0 0 0 0 0 0 0 0 0 0 0 0 0 0 0 0 0 0 0 0 0 0 0 0 0 0 0 0 0 0 0 0 0 0 0 0 0 0 0
0 0 0 0 0 0 0 0 0 0 0 0 0 0 0 0 0 0 0 0 0 0 0 0 0 0 0 0 0 0 0 0 0 0 0 0 0 0 0 0 0 0 0 0
0 0 0 0 0 0 0 0 0 0 0 0 0 0 0 0 0 0 0 0 0 0 0 0 0 0 0 0 0 0 0 0 0 0 0 0 0 0 0 0 0 0 0 0
0 0 0 0 0 0 0 0 0 0 0 0 0 0 0 0 0 0 0 0 0 0 0 0 0 0 0 0 0 0 0 0 0 0 0 0 0 0 0 0 0 0 0 0
0 0 0 0 0 0 0 0 0 0 0 0 0 0 0 0 0 0 0 0 0 0 0 0 0 0 0 0 0 0 0 0 0 0 0 0 0 0 0 0 0 0 0 0
0 0 0 0 0 0 0 0 0 0 0 0 0 0 0 0 0 0 0 0 0 0 0 0 0 0 0 0 0 0 0 0 0 0 0 0 0 0 0 0 0 0 0 0
0 0 0 0 0 0 0 0 0 0 0 0 0 0 0 0 0 0 0 0 0 0 0 0 0 0 0 0 0 0 0 0 0 0 0 0 0 0 0 0 0 0 0 0
0 0 0 0 0 0 0 0 0 0 0 0 0 0 0 0 0 0 0 0 0 0 0 0 0 0 0 0 0 0 0 0 0 0 0 0 0 0 0 0 0 0 0 0
0 0 0 0 0 0 0 0 0 0 0 0 0 0 0 0 0 0 0 0 0 0 0 0 0 0 0 0 0 0 0 0 0 0 0 0 0 0 0 0 0 0 0 0
0 0 0 0 0 0 0 0 0 0 0 0 0 0 0 0 0 0 0 0 0 0 0 0 0 0 0 0 0 0 0 0 0 0 0 0 0 0 0 0 0 0 0 0
0 0 0 0 0 0 0 0 0 0 0 0 0 0 0 0 0 0 0 0 0 0 0 0 0 0 0 0 0 0 0 0 0 0 0 0 0 0 0 0 0 0 0 0
0 0 0 0 0 0 0 0 0 0 0 0 0 0 0 0 0 0 0 0 0 0 0 0 0 0 0 0 0 0 0 0 0 0 0 0 0 0 0 0 0 0 0 0
0 0 0 0 0 0 0 0 0 0 0 0 0 0 0 0 0 0 0 0 0 0 0 0 0 0 0 0 0 0 0 0 0 0 0 0 0 0 0 0 0 0 0 0
0 0 0 0 0 0 0 0 0 0 0 0 0 0 0 0 0 0 0 0 0 0 0 0 0 0 0 0 0 0 0 0 0 0 0 0 0 0 0 0 0 0 0 0
0 0 0 0 0 0 0 0 0 0 0 0 0 0 0 0 0 0 0 0 0 0 0 0 0 0 0 0 0 0 0 0 0 0 0 0 0 0 0 0 0 0 0 0
0 0 0 0 0 0 0 0 0 0 0 0 0 0 0 0 0 0 0 0 0 0 0 0 0 0 0 0 0 0 0 0 0 0 0 0 0 0 0 0 0 0 0 0
0 0 0 0 0 0 0 0 0 0 0 0 0 0 0 0 0 0 0 0 0 0 0 0 0 0 0 0 0 0 0 0 0 0 0 0 0 0 0 0 0 0 0 0
Wind_Speed
5 7 3 1 0 2 2 2 1 3 2 2 4 7 7 4 2 4 3 3 4 5 4 2 2 3 2 3 3 3 3 3 2 2 2 1 1 1 0 0 1 0 0 1
6 4 2 1 2 3 3 2 1 3 2 2 3 7 5 3 4 4 4 4 4 3 3 2 2 2 3 3 4 4 4 3 3 2 2 2 1 1 1 0 1 1 0 0
5 1 1 3 4 3 2 2 1 2 4 3 3 6 4 2 1 2 2 2 2 3 4 3 3 3 2 3 4 4 3 3 2 2 1 1 1 0 0 1 1 1 0 0
3 3 2 3 2 2 1 1 1 0 3 3 2 4 7 3 3 2 3 2 3 3 3 3 3 3 3 4 3 3 3 2 2 2 3 3 3 2 2 1 1 1 1 1
2 2 3 2 1 0 2 1 1 0 1 2 2 1 9 3 3 4 3 3 4 4 3 3 3 4 3 3 3 2 2 2 2 2 3 3 2 2 1 1 0 1 1 1
1 1 1 1 2 0 1 2 2 3 3 2 2 2 7 3 4 5 3 3 4 3 3 3 2 2 1 1 2 2 3 3 3 3 3 4 4 3 2 2 1 1 1 1
4 3 3 2 2 3 4 4 5 6 5 4 2 2 8 6 5 4 4 4 3 3 2 2 2 1 1 2 2 3 3 3 3 3 3 4 5 4 4 3 2 2 1 1
2 3 3 2 1 0 1 3 5 2 3 5 3 5 7 4 4 3 2 2 2 3 2 3 3 2 2 3 3 3 3 3 3 3 3 3 3 3 3 3 3 2 2 2
2 3 2 2 1 1 1 1 2 4 1 3 5 7 8 3 3 3 2 2 3 3 3 3 2 2 2 3 3 4 4 3 3 3 2 2 3 3 3 2 2 2 2 1
3 1 3 2 2 2 1 3 3 4 2 3 6 5 5 4 5 4 3 3 4 3 3 3 2 2 3 2 2 2 3 3 2 2 2 2 2 2 2 2 2 2 2 1
2 2 3 2 1 2 1 1 2 2 3 3 4 8 6 5 4 4 5 4 4 4 3 3 3 2 2 2 2 2 2 2 2 2 2 2 2 2 2 2 2 2 2 1
1 3 1 4 2 1 2 3 4 3 3 3 3 10 4 4 4 4 5 4 4 3 3 3 3 2 2 2 2 2 2 2 2 2 1 1 1 1 1 2 2 2 2 1
2 4 2 5 2 1 1 2 2 3 3 3 4 10 3 2 3 4 4 4 4 3 3 2 2 2 2 2 2 1 1 1 1 1 1 1 1 1 1 2 1 1 1 2
3 2 5 7 5 3 3 4 4 4 4 5 10 11 10 7 6 6 5 4 4 4 4 3 3 3 3 2 2 1 1 1 1 1 1 1 2 2 2 2 1 2 2 2
3 2 3 5 4 3 5 7 7 9 9 10 9 9 14 9 7 7 5 5 4 4 4 4 4 3 3 2 2 2 1 1 0 1 1 2 2 1 1 2 2 2 2 3
2 3 1 4 3 4 7 10 10 11 10 11 10 14 13 8 5 6 6 5 5 5 5 5 4 4 3 4 3 2 2 1 0 1 1 1 1 1 1 2 2 3 3 3
3 4 2 4 4 4 9 11 12 9 10 10 13 13 6 4 6 7 6 6 7 7 6 6 5 5 5 4 4 3 3 1 1 1 1 1 1 1 2 2 2 2 3 2
6 4 2 1 3 6 9 2 7 8 9 11 11 9 7 8 7 6 6 7 7 6 6 6 5 5 4 3 2 2 2 2 2 2 2 2 2 2 2 2 2 3 2 3
4 6 4 2 2 11 10 5 7 7 9 11 14 13 9 5 4 6 6 7 8 7 6 5 4 4 3 3 3 2 1 1 2 3 3 3 2 3 3 3 3 3 3 3
2 3 5 4 3 9 8 3 4 3 8 7 11 11 7 3 2 7 5 4 5 5 4 3 2 2 2 3 2 2 2 2 3 4 3 3 3 3 4 4 4 3 3 4
4 3 5 6 7 13 9 4 6 5 8 3 8 9 7 9 9 5 3 3 4 3 3 2 2 2 3 2 2 3 3 4 4 3 2 2 3 4 4 3 3 3 3 3
12 9 9 7 7 14 7 9 11 11 3 2 4 6 7 9 7 5 5 5 4 3 2 2 2 3 2 1 2 3 4 4 2 1 2 3 3 3 2 3 3 2 2 3
11 12 10 14 14 6 9 11 8 3 4 4 4 5 6 6 7 7 6 6 5 4 4 3 3 3 2 2 3 4 4 2 1 2 3 3 2 2 2 3 3 2 2 2
7 4 5 8 13 9 9 9 8 7 8 7 6 5 5 7 8 7 7 6 5 5 4 3 3 3 4 3 3 4 2 1 2 2 3 2 2 2 2 2 2 2 3 3
9 9 7 10 10 7 8 11 13 10 8 8 7 6 7 7 8 8 7 7 6 5 4 3 4 5 5 3 3 3 2 2 2 3 2 2 2 2 2 2 3 4 4 4
9 12 12 12 9 8 9 7 8 9 10 10 8 8 7 8 10 8 7 6 5 5 4 4 4 5 4 3 3 3 2 3 3 3 3 2 2 2 2 2 3 5 6 7
Wind_Direction
27 59 54 332 218 146 142 143 248 268 306 321 266 272 279 266 227 239 247 248 256 259 253 221 210 216 197 196 185 179 178 181 162 160 161 169 207 230 289 289 297 233 190 178
46 39 312 337 58 84 96 93 323 308 336 312 301 292 275 243 221 223 225 238 251 274 297 266 240 223 209 202 195 184 187 195 194 193 178 169 166 191 205 289 328 356 35 104
99 279 316 66 56 69 57 146 230 296 330 343 338 319 309 285 256 258 240 237 248 243 260 272 255 231 224 225 214 202 202 203 198 175 145 123 97 29 344 324 308 330 330 356
60 340 42 67 44 62 288 232 171 348 21 328 25 311 300 297 295 273 273 276 269 267 263 268 258 249 233 232 222 203 194 190 195 178 170 174 186 208 226 221 245 308 314 313
32 9 38 42 324 61 226 275 271 267 95 342 360 227 287 317 289 280 267 264 274 271 261 260 244 236 235 223 207 205 191 192 197 190 186 183 200 213 206 188 212 269 300 308
31 351 43 311 304 211 263 19 34 44 66 341 268 188 282 268 259 283 276 262 270 284 276 268 255 233 244 221 194 200 199 209 202 196 194 190 197 201 195 209 209 232 257 282
2 355 353 2 16 14 37 67 29 7 10 265 292 232 255 263 262 265 265 268 277 283 283 279 268 254 252 230 212 205 204 218 211 203 205 203 201 197 202 208 203 207 229 271
53 318 324 353 72 294 358 105 135 192 256 290 319 251 258 275 285 287 261 265 294 293 285 273 260 243 241 243 231 211 210 218 211 206 212 205 196 197 206 201 193 204 216 231
144 269 311 307 325 121 95 93 137 128 60 299 283 285 296 284 310 318 303 306 297 293 290 283 279 269 252 244 241 219 208 214 215 205 199 194 187 190 198 193 187 203 213 218
145 227 295 313 18 7 133 145 97 108 121 292 297 278 261 271 279 296 294 284 281 284 291 291 283 276 270 258 256 243 215 214 211 203 203 201 193 192 189 188 198 202 205 200
139 138 309 352 191 207 112 123 120 125 155 175 284 275 228 228 239 252 263 268 267 265 269 272 274 271 274 287 279 260 245 230 218 208 196 191 194 186 181 194 209 211 206 200
136 121 267 262 246 235 199 190 158 160 230 205 232 270 260 236 244 247 263 274 272 268 268 266 272 282 284 283 276 263 258 239 227 203 176 180 188 172 175 208 218 208 216 214
139 118 36 343 326 337 253 222 179 141 134 182 209 262 288 285 289 275 269 275 271 273 270 273 282 285 288 288 284 281 286 267 223 169 165 186 202 195 207 222 218 212 221 228
118 148 182 211 230 194 232 230 193 159 183 217 229 255 282 286 286 284 279 272 265 268 264 263 268 269 277 281 278 269 269 271 192 165 175 221 233 221 222 229 230 229 227 234
124 195 243 263 275 246 240 233 207 207 209 214 237 243 263 268 267 269 264 266 264 269 268 257 251 252 260 265 269 263 266 267 155 153 205 245 251 244 232 235 239 238 235 241
133 174 239 291 280 261 263 246 223 224 226 236 256 269 262 265 258 262 261 259 255 256 256 255 254 251 249 247 246 246 253 253 177 191 238 256 259 251 250 254 250 247 247 249
154 139 136 274 315 336 272 232 204 210 214 203 225 242 263 271 259 254 254 249 248 250 246 244 245 244 242 238 229 225 228 221 209 231 250 256 248 251 254 254 252 250 251 252
150 142 148 287 18 258 248 205 191 211 235 218 235 250 255 254 269 264 246 235 245 246 242 241 239 242 242 232 223 217 202 194 212 237 250 256 251 260 271 267 266 266 259 253
166 150 139 141 249 277 286 233 184 198 261 220 225 245 253 266 304 284 246 224 233 238 237 236 234 232 232 232 221 201 209 213 234 247 251 251 245 252 259 263 267 268 270 270
117 126 139 153 196 245 249 190 165 138 276 230 207 229 233 175 253 265 246 223 235 245 239 233 234 227 228 238 201 194 222 229 246 251 254 256 251 248 251 256 264 267 265 268
158 165 183 190 226 258 247 169 135 178 246 217 195 213 199 199 220 245 256 249 235 239 237 213 198 217 233 222 182 212 233 244 253 260 262 261 254 253 255 260 262 264 264 273
176 175 191 170 211 252 196 154 190 218 237 206 204 207 209 226 246 255 254 251 244 242 234 203 204 236 244 198 187 225 245 256 268 266 262 263 261 261 262 262 268 268 262 269
201 192 186 194 216 238 178 201 218 208 226 233 220 222 216 235 247 249 248 248 246 238 232 220 212 235 250 217 197 226 249 246 233 242 255 262 264 262 257 255 258 263 252 259
232 197 198 243 255 244 232 241 248 233 233 241 234 234 222 235 249 253 251 249 243 240 235 225 213 227 243 231 225 233 243 226 217 237 252 256 256 266 264 258 243 238 242 251
206 178 205 246 261 281 259 233 237 238 239 246 246 235 229 231 246 247 250 246 239 236 229 212 216 229 240 233 232 235 224 200 222 242 252 260 256 256 261 259 251 248 243 239
190 183 190 225 217 207 239 230 218 225 237 239 241 251 242 226 240 246 246 242 237 234 222 219 224 228 237 232 236 237 219 198 207 236 246 248 254 256 258 269 284 270 268 277